Weather reports worldwide

Advertisment
Bremen, Germany (10224): temperature & dewpoint: 18.07.2019 01:00:00 - 24.07.2019 01:00:00 (CEST)Bremen, Germany (10224): temperature 5cm & temperature -5cm: 18.07.2019 01:00:00 - 24.07.2019 01:00:00 (CEST)Bremen, Germany (10224): temperature -20cm & temperature -100cm: 18.07.2019 01:00:00 - 24.07.2019 01:00:00 (CEST)Bremen, Germany (10224): wind speed & gusts: 18.07.2019 01:00:00 - 24.07.2019 01:00:00 (CEST)Bremen, Germany (10224): wind direction: 18.07.2019 01:00:00 - 24.07.2019 01:00:00 (CEST)Bremen, Germany (10224): reduced air pressure: 18.07.2019 01:00:00 - 24.07.2019 01:00:00 (CEST)Bremen, Germany (10224): visibility: 18.07.2019 01:00:00 - 24.07.2019 01:00:00 (CEST)Bremen, Germany (10224): sunshine duration: 18.07.2019 01:00:00 - 24.07.2019 01:00:00 (CEST)Bremen, Germany (10224): precipitation: 18.07.2019 01:00:00 - 24.07.2019 01:00:00 (CEST)
Date & Time tt [°C] td [°C] tt 5cm [°C] tt -5cm [°C] tt -20cm [°C] tt -100cm [°C] ff [km/h] ff [kn] fx [km/h] fx [kn] dd ppp [hPa] vv [km] sd [min] rr [mm]
24.07.2019 01:00:00 22,2 17,2 18,2 23,1 24,5 18,1 5 3 11 6 ENE 1018,9 10 0 0,0
24.07.2019 00:00:00 22,2 17,3 19,1 24,1 24,8 18,1 9 5 15 8 ENE 1018,9 10 0 0,0
23.07.2019 23:00:00 24,5 17,4 22,2 25,2 25,2 18,1 11 6 18 10 NE 1019,0 10 0 0,0
23.07.2019 22:00:00 26,5 17,3 24,3 26,6 25,4 18,1 13 7 21 11 ENE 1018,9 10 16 0,0
23.07.2019 21:00:00 27,9 17,2 26,5 28,3 25,5 18,1 14 8 23 13 NE 1018,7 30 60 0,0
23.07.2019 20:00:00 29,5 17,0 29,4 30,2 25,5 18,1 14 8 22 12 ENE 1019,0 30 60 0,0
23.07.2019 19:00:00 30,2 16,4 31,5 31,8 25,2 18,1 15 8 23 13 NE 1019,1 10 60 0,0
23.07.2019 18:00:00 30,9 16,6 34,1 33,2 24,8 18,1 16 9 26 14 N 1019,4 10 60 0,0
23.07.2019 17:00:00 31,2 16,0 35,4 34,0 24,2 18,1 8 4 18 10 - 1019,8 10 60 0,0
23.07.2019 16:00:00 31,5 15,2 36,1 34,4 23,4 18,1 9 5 18 10 SW 1020,1 10 60 0,0
23.07.2019 15:00:00 30,2 15,3 35,3 33,9 22,6 18,1 5 3 15 8 ESE 1020,5 45 60 0,0
23.07.2019 14:00:00 29,1 15,9 34,9 32,8 21,8 18,1 5 3 15 8 - 1021,0 10 60 0,0
23.07.2019 13:00:00 28,1 15,2 34,9 31,2 20,9 18,1 5 3 16 9 - 1021,7 10 60 0,0
23.07.2019 12:00:00 26,9 16,5 32,0 29,1 20,2 18,1 9 5 16 9 SSW 1022,0 10 60 0,0
23.07.2019 11:00:00 26,1 16,4 31,5 26,7 19,6 18,1 4 2 11 6 - 1022,2 10 60 0,0
23.07.2019 10:00:00 24,0 16,3 28,1 23,8 19,2 18,1 5 3 13 7 SW 1022,3 10 60 0,0
23.07.2019 09:00:00 22,3 16,3 26,0 21,2 19,0 18,1 5 3 11 6 WSW 1022,2 40 60 0,0
23.07.2019 08:00:00 19,1 16,6 21,2 18,7 19,0 18,1 6 3 9 5 SW 1022,3 25 60 0,0
23.07.2019 07:00:00 16,0 15,4 17,5 16,8 19,2 18,1 4 2 8 4 - 1022,3 10 56 0,0
23.07.2019 06:00:00 14,7 14,6 12,7 16,3 19,4 18,1 4 2 4 2 S 1022,1 0,4 0 0,0
23.07.2019 05:00:00 15,5 15,5 11,9 16,6 19,7 18,1 2 1 8 4 - 1022,1 0,9 0 0,0
23.07.2019 04:00:00 14,9 14,7 12,7 17,0 19,9 18,1 4 2 8 4 SSW 1022,0 0,6 0 0,0
23.07.2019 03:00:00 17,0 16,9 13,3 17,6 20,2 18,1 2 1 5 3 W 1022,1 9 0 0,0
23.07.2019 02:00:00 16,4 16,1 14,0 18,2 20,5 18,1 4 2 8 4 SSE 1022,3 6 0 0,0
23.07.2019 01:00:00 15,8 15,3 14,2 18,9 20,7 18,1 5 3 8 4 SW 1022,3 25 0 0,0
23.07.2019 00:00:00 18,8 17,0 16,3 19,7 20,9 18,1 4 2 13 7 E 1022,3 10 0 0,0
22.07.2019 23:00:00 21,1 17,5 19,4 20,5 21,1 18,2 10 5 15 8 NNE 1022,1 60 0 0,0
22.07.2019 22:00:00 23,0 16,9 21,0 21,4 21,1 18,2 12 6 23 12 WNW 1021,7 60 14 0,0
22.07.2019 21:00:00 25,1 16,9 24,6 22,6 21,1 18,2 21 11 31 17 WNW 1021,3 10 41 0,0
22.07.2019 20:00:00 25,8 16,7 25,6 23,6 21,0 18,2 21 11 31 17 W 1020,9 10 35 0,0
22.07.2019 19:00:00 26,7 16,3 27,5 24,4 20,8 18,2 24 13 38 21 W 1020,9 10 32 0,0
22.07.2019 18:00:00 26,1 15,7 26,3 24,4 20,5 18,2 23 13 45 24 W 1021,0 25 34 0,0
22.07.2019 17:00:00 26,0 15,0 27,5 25,4 20,1 18,2 18 10 40 21 WSW 1021,1 10 50 0,0
22.07.2019 16:00:00 26,1 14,2 28,4 24,2 19,6 18,2 22 12 37 20 W 1021,3 10 24 0,0
22.07.2019 15:00:00 24,7 12,4 27,3 24,2 19,2 18,2 22 12 37 20 WSW 1021,3 10 31 0,0
22.07.2019 14:00:00 23,6 13,0 25,8 23,2 18,8 18,2 24 13 36 20 SW 1021,9 10 13 0,0
22.07.2019 13:00:00 22,7 13,0 24,8 22,0 18,4 18,2 16 9 25 13 SW 1022,1 10 0 0,0
22.07.2019 12:00:00 21,2 12,7 23,3 20,7 18,1 18,2 11 6 18 10 SW 1022,5 10 0 0,0
22.07.2019 11:00:00 19,8 12,6 21,2 19,5 17,8 18,2 9 5 14 7 SSW 1022,7 10 0 0,0
22.07.2019 10:00:00 18,3 13,4 18,8 18,1 17,7 18,2 8 4 9 5 S 1022,5 10 0 0,0
22.07.2019 09:00:00 16,6 13,7 16,9 16,8 17,6 18,2 5 3 8 4 SSE 1022,4 25 0 0,0
22.07.2019 08:00:00 14,6 12,5 14,2 15,6 17,7 18,2 2 1 4 2 SSE 1022,5 25 0 0,0
22.07.2019 07:00:00 12,9 12,0 12,6 14,7 17,9 18,2 3 2 8 4 SE 1022,1 25 2 0,0
22.07.2019 06:00:00 12,2 12,1 11,5 14,2 18,2 18,2 4 2 5 3 SE 1022,5 10 2 0,0
22.07.2019 05:00:00 11,9 11,9 10,8 14,3 18,5 18,2 0 0 4 2 N 1022,8 10 0 0,0
22.07.2019 04:00:00 12,3 12,3 10,8 14,6 18,9 18,2 2 1 4 2 S 1022,9 10 0 0,0
22.07.2019 03:00:00 12,9 12,4 10,7 15,0 19,2 18,2 2 1 5 3 SSW 1023,1 20 0 0,0
22.07.2019 02:00:00 13,5 12,5 10,9 15,5 19,5 18,2 4 2 4 2 SW 1023,2 10 0 0,0
22.07.2019 01:00:00 14,2 12,5 12,0 16,2 19,9 18,2 4 2 5 3 SW 1023,3 10 0 0,0
22.07.2019 00:00:00 14,6 12,6 13,0 16,8 20,2 18,2 4 2 8 4 WSW 1022,9 10 0 0,0
21.07.2019 23:00:00 15,9 12,1 13,6 17,3 20,6 18,2 8 4 13 7 WNW 1022,7 10 0 0,0
21.07.2019 22:00:00 17,6 11,9 14,9 18,3 20,9 18,2 9 5 18 10 WNW 1022,3 10 5 0,0
21.07.2019 21:00:00 20,2 12,1 19,0 19,7 21,2 18,1 15 8 26 14 NW 1021,9 10 57 0,0
21.07.2019 20:00:00 21,7 11,0 21,7 21,3 21,3 18,1 16 9 26 14 NW 1021,3 40 52 0,0
21.07.2019 19:00:00 21,9 10,8 22,1 22,2 21,3 18,1 18 10 37 20 WNW 1021,1 10 41 0,0
21.07.2019 18:00:00 23,0 11,2 24,6 22,8 21,2 18,1 17 9 35 19 WNW 1021,1 40 40 0,0
21.07.2019 17:00:00 23,4 11,3 25,6 23,5 21,1 18,1 23 12 45 24 WNW 1020,9 40 39 0,0
21.07.2019 16:00:00 24,0 11,7 27,4 23,4 20,9 18,1 26 14 41 22 WNW 1020,5 10 27 0,0
21.07.2019 15:00:00 23,9 11,8 27,2 24,1 20,6 18,1 27 14 41 22 W 1020,2 40 37 0,0
21.07.2019 14:00:00 22,7 12,4 24,3 23,9 20,2 18,1 27 15 42 23 WNW 1019,5 40 34 0,0
21.07.2019 13:00:00 22,7 12,1 25,3 23,9 19,8 18,1 27 15 48 26 WNW 1019,0 40 43 0,0
21.07.2019 12:00:00 22,5 12,3 25,8 23,5 19,4 18,1 24 13 41 22 WSW 1018,4 10 60 0,0
21.07.2019 11:00:00 21,7 13,7 24,3 22,0 19,0 18,1 24 13 36 20 WSW 1018,0 10 55 0,0
21.07.2019 10:00:00 20,0 14,6 22,1 20,6 18,7 18,1 24 13 34 18 WSW 1017,2 40 58 0,0
21.07.2019 09:00:00 18,6 15,1 20,3 19,0 18,6 18,1 21 11 31 17 W 1016,6 10 58 0,0
21.07.2019 08:00:00 17,3 15,4 18,0 17,2 18,6 18,1 15 8 22 12 WSW 1016,1 10 60 0,0
21.07.2019 07:00:00 15,8 14,9 15,6 15,8 18,9 18,1 13 7 18 10 SW 1015,2 15 48 0,0
21.07.2019 06:00:00 15,0 14,2 14,1 15,4 19,2 18,1 15 8 18 10 SW 1014,5 10 0 0,0
21.07.2019 05:00:00 13,9 13,6 12,1 15,8 19,5 18,0 8 4 15 8 SW 1013,9 20 0 0,0
21.07.2019 04:00:00 15,6 15,1 14,6 16,2 19,8 18,0 11 6 16 9 SSW 1013,4 25 0 0,0
21.07.2019 03:00:00 15,4 15,2 14,3 16,6 20,1 18,0 9 5 15 8 S 1013,2 25 0 0,0
21.07.2019 02:00:00 15,4 15,0 14,5 17,0 20,4 18,0 11 6 13 7 S 1013,2 10 0 0,0
21.07.2019 01:00:00 16,1 15,5 15,0 17,7 20,8 18,0 9 5 20 11 S 1012,9 10 0 0,0
21.07.2019 00:00:00 16,5 16,1 15,8 18,3 21,1 18,0 10 5 15 8 SSE 1012,4 30 0 0,0
20.07.2019 23:00:00 17,1 16,5 16,5 19,1 21,4 18,0 8 4 13 7 S 1012,3 30 0 0,0
20.07.2019 22:00:00 17,2 16,6 16,5 19,5 21,6 18,0 9 5 15 8 SSE 1012,1 10 0 0,0
20.07.2019 21:00:00 18,2 17,2 17,4 20,6 21,9 18,0 10 5 19 10 SSE 1011,7 30 15 0,0
20.07.2019 20:00:00 18,5 17,2 18,5 21,1 22,1 17,9 11 6 16 9 SE 1011,4 10 10 0,4
20.07.2019 19:00:00 18,1 16,9 17,8 20,9 22,4 17,9 7 4 20 11 SE 1010,7 11 0 4,4
20.07.2019 18:00:00 19,8 16,6 19,1 22,0 22,7 17,9 4 2 11 6 S 1010,9 18 0 0,0
20.07.2019 17:00:00 18,1 16,9 17,9 21,9 23,0 17,9 4 2 21 11 - 1010,4 10 0 0,7
20.07.2019 16:00:00 19,1 15,5 17,7 22,9 23,1 17,9 12 7 52 28 W 1011,6 20 0 13,5
20.07.2019 15:00:00 27,5 13,7 28,6 29,5 22,7 17,9 19 10 35 19 S 1009,3 10 2 0,0
20.07.2019 14:00:00 28,1 13,5 30,1 30,4 22,2 17,9 16 9 35 19 SSW 1010,0 25 32 0,0
20.07.2019 13:00:00 27,8 13,9 32,2 29,6 21,6 17,9 21 11 40 21 S 1010,1 25 54 0,0
20.07.2019 12:00:00 26,9 13,3 30,9 28,1 21,1 17,8 22 12 37 20 SSW 1010,7 10 60 0,0
20.07.2019 11:00:00 25,8 12,8 29,2 25,8 20,7 17,8 26 14 36 20 S 1011,0 10 60 0,0
20.07.2019 10:00:00 24,4 13,1 28,3 23,0 20,6 17,8 18 10 29 16 S 1011,3 10 45 0,0
20.07.2019 09:00:00 21,1 13,5 22,7 21,1 20,6 17,8 16 9 23 13 SSE 1011,7 10 56 0,0
20.07.2019 08:00:00 17,9 12,9 19,4 19,5 20,7 17,8 11 6 16 9 SE 1012,0 10 36 0,0
20.07.2019 07:00:00 16,4 11,9 16,9 18,6 20,9 17,8 11 6 15 8 SE 1012,3 18 24 0,0
20.07.2019 06:00:00 15,5 11,1 14,6 18,4 21,2 17,8 9 5 18 10 SE 1012,7 10 0 0,0
20.07.2019 05:00:00 16,1 10,5 15,1 18,7 21,5 17,8 9 5 16 9 SE 1012,7 10 0 0,0
20.07.2019 04:00:00 16,5 10,0 15,9 18,8 21,8 17,7 12 6 18 10 SE 1012,9 50 0 0,0
20.07.2019 03:00:00 16,9 9,9 15,4 19,1 22,2 17,7 11 6 21 11 ESE 1013,1 50 0 0,0
20.07.2019 02:00:00 16,3 9,7 13,4 19,6 22,5 17,7 11 6 15 8 E 1013,6 10 0 0,0
20.07.2019 01:00:00 17,5 9,7 14,5 20,5 22,9 17,7 8 4 18 10 ESE 1014,1 10 0 0,0
20.07.2019 00:00:00 17,3 9,6 15,4 21,5 23,3 17,7 13 7 16 9 E 1014,0 10 0 0,0
19.07.2019 23:00:00 18,6 11,3 16,9 22,7 23,6 17,7 9 5 21 11 ENE 1014,0 10 0 0,0
19.07.2019 22:00:00 20,1 11,3 18,7 24,1 23,9 17,7 13 7 22 12 ENE 1013,9 10 0 0,0
19.07.2019 21:00:00 21,8 11,2 21,0 26,1 24,0 17,7 15 8 22 12 NNE 1013,4 10 26 0,0
19.07.2019 20:00:00 23,1 10,9 23,7 27,9 23,9 17,7 16 9 22 12 NNE 1013,1 10 57 0,0
19.07.2019 19:00:00 24,0 10,8 24,6 29,0 23,8 17,7 4 2 21 11 - 1013,1 10 35 0,0
19.07.2019 18:00:00 24,4 8,9 27,5 30,2 23,6 17,6 8 4 21 11 WNW 1013,2 10 45 0,0
19.07.2019 17:00:00 24,0 8,8 27,1 29,8 23,3 17,6 14 8 36 19 WNW 1013,4 40 18 0,0
19.07.2019 16:00:00 24,5 8,7 30,8 30,9 22,8 17,6 16 9 29 16 WNW 1013,4 40 29 0,0
19.07.2019 15:00:00 24,3 9,4 31,8 32,0 22,1 17,6 15 8 31 17 NNW 1013,3 10 50 0,0
19.07.2019 14:00:00 25,2 10,2 32,0 31,3 21,4 17,6 13 7 28 15 WNW 1013,4 10 55 0,0
19.07.2019 13:00:00 24,4 9,5 32,3 29,7 20,8 17,6 16 8 26 14 WNW 1013,5 40 60 0,0
19.07.2019 12:00:00 23,0 12,0 29,5 26,7 20,3 17,6 14 8 27 14 WNW 1013,4 10 56 0,0
19.07.2019 11:00:00 20,4 13,2 24,6 23,9 20,1 17,6 13 7 24 13 WNW 1013,4 10 42 0,0
19.07.2019 10:00:00 19,5 13,6 21,7 21,8 20,0 17,5 15 8 26 14 WNW 1013,2 10 26 0,0
19.07.2019 09:00:00 19,3 13,9 21,2 19,9 20,0 17,5 15 8 26 14 W 1012,8 10 6 0,0
19.07.2019 08:00:00 18,1 15,2 18,4 19,0 20,1 17,5 12 7 18 10 WSW 1012,3 30 0 0,0
19.07.2019 07:00:00 17,3 15,5 17,2 18,6 20,3 17,5 12 7 18 10 WSW 1011,9 15 0 0,0
19.07.2019 06:00:00 16,5 14,8 16,0 18,4 20,5 17,5 9 5 15 8 SW 1011,7 9 0 0,0
19.07.2019 05:00:00 15,2 13,5 14,0 18,3 20,8 17,5 2 1 8 4 - 1011,5 10 0 0,0
19.07.2019 04:00:00 15,1 13,4 13,3 18,6 21,1 17,5 7 4 9 5 SSE 1011,4 15 0 0,0
19.07.2019 03:00:00 15,2 13,7 14,0 19,2 21,4 17,5 5 3 9 5 SSE 1011,3 10 0 0,0
19.07.2019 02:00:00 15,9 13,2 14,3 19,9 21,7 17,5 9 5 9 5 WSW 1011,5 10 0 0,0
19.07.2019 01:00:00 16,7 13,1 15,1 20,6 22,0 17,5 8 4 18 10 WNW 1011,1 10 0 0,0
19.07.2019 00:00:00 18,7 13,6 18,2 21,5 22,2 17,5 15 8 29 16 WNW 1010,8 10 0 0,0
18.07.2019 23:00:00 20,2 13,2 18,8 22,2 22,5 17,5 15 8 29 16 W 1010,3 10 0 0,0
18.07.2019 22:00:00 22,0 11,9 19,6 23,4 22,7 17,5 8 5 9 5 SE 1010,0 40 0 0,0
18.07.2019 21:00:00 22,6 12,0 21,4 24,7 22,8 17,5 8 4 15 8 SSE 1009,7 10 0 0,0
18.07.2019 20:00:00 23,9 10,7 23,4 26,1 22,8 17,4 9 5 24 13 S 1009,7 10 2 0,0
18.07.2019 19:00:00 25,0 11,5 25,9 27,3 22,6 17,4 13 7 23 13 SSW 1009,9 10 1 0,0
18.07.2019 18:00:00 25,4 10,1 26,6 28,5 22,3 17,4 11 6 27 15 SSW 1010,0 10 7 0,0
18.07.2019 17:00:00 26,0 9,7 29,8 29,2 22,0 17,4 11 6 23 13 SSW 1010,2 10 26 0,0
18.07.2019 16:00:00 25,4 11,0 29,0 29,4 21,5 17,4 10 6 27 15 S 1010,6 40 13 0,0
18.07.2019 15:00:00 24,7 9,8 28,0 28,8 21,0 17,4 13 7 26 14 SSW 1010,9 40 4 0,0
18.07.2019 14:00:00 24,4 10,0 28,0 28,6 20,5 17,4 10 5 24 13 SE 1011,1 35 31 0,0
18.07.2019 13:00:00 23,8 10,8 29,3 27,3 19,9 17,4 11 6 19 10 SSE 1011,3 10 33 0,0
18.07.2019 12:00:00 23,2 11,3 27,3 26,8 19,3 17,4 9 5 21 11 SSW 1011,6 10 45 0,0
18.07.2019 11:00:00 22,2 10,6 27,3 25,2 18,8 17,4 11 6 22 12 SE 1011,8 10 60 0,0
18.07.2019 10:00:00 21,1 11,2 25,6 22,6 18,5 17,4 10 5 15 8 SSE 1012,0 35 60 0,0
18.07.2019 09:00:00 19,1 12,8 22,1 19,5 18,4 17,4 6 3 9 5 ESE 1012,3 30 60 0,0
18.07.2019 08:00:00 16,3 12,2 18,3 16,9 18,5 17,4 4 2 8 4 - 1012,5 10 60 0,0
18.07.2019 07:00:00 13,3 11,8 13,8 15,3 18,8 17,4 4 2 4 2 - 1012,7 10 56 0,0
18.07.2019 06:00:00 10,9 10,8 8,7 14,9 19,2 17,4 4 2 5 3 E 1012,9 8 0 0,0
18.07.2019 05:00:00 10,6 10,4 8,1 15,4 19,5 17,4 2 1 8 4 SSE 1013,1 8 0 0,0
18.07.2019 04:00:00 12,0 11,3 9,7 16,0 19,9 17,4 8 4 8 4 E 1013,2 30 0 0,0
18.07.2019 03:00:00 12,2 11,7 9,2 16,6 20,3 17,4 5 3 5 3 ENE 1013,7 30 0 0,0
18.07.2019 02:00:00 14,0 12,3 10,5 17,5 20,7 17,4 5 3 9 5 NE 1013,9 10 0 0,0
18.07.2019 01:00:00 14,4 12,1 11,6 18,4 21,1 17,4 8 4 10 6 NE 1013,9 10 0 0,0

tt = temperature
td = dewpoint
tt 5cm = temperature 5cm
tt -5cm = temperature -5cm
tt -20cm = temperature -20cm
tt -100cm = temperature -100cm
ff = wind speed
fx = gusts
dd = wind direction
ppp = reduced air pressure
vv = visibility
sd = sunshine duration
rr = precipitation

Next stations